Tetuan, Morocco

6:13 PM WEST on September 21, 2017 (GMT +0100)
Tetuan

Weather History for GMTN - January, 2014

Change the Weather History Date:

Wednesday, January 22, 2014

  Actual Average Record
Temperature  
Mean Temperature 58 °F -  
Max Temperature 63 °F 61 °F 67 °F (2016)
Min Temperature 54 °F 49 °F 49 °F (2017)
Degree Days  
Heating Degree Days 6    
Growing Degree Days 8 (Base 50)    
Moisture  
Dew Point 47 °F    
Average Humidity 64    
Maximum Humidity 77    
Minimum Humidity 44    
Precipitation  
Precipitation 0.03 in - - ()
Sea Level Pressure  
Sea Level Pressure 30.04 in    
Wind  
Wind Speed 15 mph ()    
Max Wind Speed 23 mph    
Max Gust Speed 32 mph    
Visibility 5.8 miles    
Events Rain    
Averages and records for this station are not official NWS values.
T = Trace of Precipitation, MM = Missing Value Source: Averaged Metar Reports

Daily Weather History Graph

Daily Weather History Graph

Search for Another Location

Airport or City:

Trip Planner

Search our weather history database for the weather conditions in past years. The results will help you decide how hot, cold, wet, or windy it might be!

Date:

Astronomy

Jan. 22, 2014 Rise Set
Actual Time 7:27 AM WET 5:38 PM WET
Civil Twilight 7:00 AM WET 6:05 PM WET
Nautical Twilight 6:29 AM WET 6:36 PM WET
Astronomical Twilight 5:58 AM WET 7:07 PM WET
Moon 11:42 PM WET (1/22) 10:34 AM WET (1/22)
Length of Visible Light 11h 05m
Length of Day
10h 10m
Waning Gibbous, 67% of the Moon is Illuminated
Jan 22
Waning Gibbous
Jan 24
Last Quarter
Jan 30
New
Feb 6
First Quarter
Feb 14
Full

Hourly Weather History & Observations

Time (WET) Temp. Dew Point Humidity Pressure Visibility Wind Dir Wind Speed Gust Speed Precip Events Conditions
12:00 AM 58 °F 42 °F 44% 30.07 in 6 mi WSW 18.4 mph - -  
12:00 AM 59.0 °F 42.8 °F 55% 30.06 in 6.2 mi WSW 18.4 mph - N/A   Unknown
1:00 AM 59.0 °F 41.0 °F 51% 30.04 in 6.2 mi West 9.2 mph - N/A   Unknown
2:00 AM 60.8 °F 41.0 °F 48% 30.01 in 6.2 mi SW 20.7 mph 32.2 mph N/A   Unknown
3:00 AM 56 °F 45 °F 58% 30.02 in 6 mi WSW 18.4 mph - -  
3:00 AM 55.4 °F 44.6 °F 67% 30.01 in 5.6 mi WSW 18.4 mph - N/A   Unknown
4:00 AM 55.4 °F 46.4 °F 72% 30.01 in 5.6 mi WSW 18.4 mph - N/A   Unknown
5:00 AM 55.4 °F 46.4 °F 72% 29.98 in 5.6 mi WSW 16.1 mph - N/A   Unknown
6:00 AM 55 °F 47 °F 67% 30.00 in 4 mi West 23.0 mph - - Rain Light Rain
6:00 AM 55.4 °F 46.4 °F 72% 29.98 in 4.3 mi West 23.0 mph - N/A Rain Light Rain
7:00 AM 55.4 °F 48.2 °F 77% 30.01 in 4.3 mi WSW 23.0 mph - N/A Rain Light Rain
8:00 AM 55.4 °F 46.4 °F 72% 30.01 in 4.3 mi West 20.7 mph - N/A   Scattered Clouds
9:00 AM 56 °F 47 °F 63% 30.05 in 6 mi West 15.0 mph - -   Partly Cloudy
9:00 AM 55.4 °F 46.4 °F 72% 30.04 in 6.2 mi West 15.0 mph - N/A   Scattered Clouds
10:00 AM 57.2 °F 48.2 °F 72% 30.06 in 6.2 mi West 15.0 mph - N/A   Scattered Clouds
12:00 PM 59 °F 49 °F 59% 30.07 in 6 mi West 13.8 mph - -   Partly Cloudy
12:00 PM 59.0 °F 48.2 °F 67% 30.06 in 6.2 mi West 13.8 mph - N/A   Scattered Clouds
1:00 PM 60.8 °F 48.2 °F 63% 30.04 in 6.2 mi West 15.0 mph - N/A   Scattered Clouds
2:00 PM 60.8 °F 50.0 °F 68% 30.01 in 6.2 mi West 13.8 mph - N/A   Mostly Cloudy
3:00 PM 62 °F 49 °F 51% 30.03 in 6 mi WSW 12.7 mph - -   Mostly Cloudy
3:00 PM 62.6 °F 48.2 °F 59% 30.01 in 6.2 mi WSW 12.7 mph - N/A   Mostly Cloudy
4:00 PM 62.6 °F 48.2 °F 59% 30.01 in 6.2 mi West 12.7 mph - N/A   Scattered Clouds
5:00 PM 59.0 °F 48.2 °F 67% 30.04 in 6.2 mi West 11.5 mph - N/A   Scattered Clouds
6:00 PM 58 °F 48 °F 61% 30.06 in 6 mi West 12.7 mph - -   Partly Cloudy
6:00 PM 59.0 °F 48.2 °F 67% 30.04 in 6.2 mi West 12.7 mph - N/A   Scattered Clouds
7:00 PM 57.2 °F 48.2 °F 72% 30.06 in 6.2 mi WSW 13.8 mph - N/A   Scattered Clouds
8:00 PM 59.0 °F 46.4 °F 63% 30.06 in 6.2 mi WSW 16.1 mph - N/A   Partly Cloudy
9:00 PM 57 °F 46 °F 58% 30.08 in 6 mi WSW 12.7 mph - -   Scattered Clouds
9:00 PM 57.2 °F 46.4 °F 67% 30.06 in 6.2 mi WSW 12.7 mph - N/A   Partly Cloudy
10:00 PM 57.2 °F 48.2 °F 72% 30.06 in 6.2 mi West 11.5 mph - N/A   Partly Cloudy
11:00 PM 55.4 °F 48.2 °F 77% 30.06 in 4.3 mi West 16.1 mph - N/A   Unknown